Weather History for Pamplona, Spain

Change the Weather History Date:

Monday, December 23, 2013

  Actual Average Record
Temperature  
Mean Temperature 41 °F -  
Max Temperature 51 °F 46 °F 60 °F (2002)
Min Temperature 31 °F 35 °F 21 °F (2005)
Degree Days  
Heating Degree Days 24    
Moisture  
Dew Point 38 °F    
Average Humidity 80    
Maximum Humidity 100    
Minimum Humidity 62    
Precipitation  
Precipitation 0.00 in - - ()
Sea Level Pressure  
Sea Level Pressure 30.19 in    
Wind  
Wind Speed 3 mph ()    
Max Wind Speed 14 mph    
Max Gust Speed 20 mph    
Visibility 6.9 miles    
Events      
Averages and records for this station are not official NWS values.
T = Trace of Precipitation, MM = Missing Value Source: Averaged Metar Reports

Daily Weather History Graph

Daily Weather History Graph

Search for Another Location

Airport:

Trip Planner

Search our weather history database for the weather conditions in past years. The results will help you decide how hot, cold, wet, or windy it might be!

Date:

Astronomy

Dec. 23, 2013 Rise Set
Actual Time 8:34 AM CET 5:36 PM CET
Civil Twilight 8:02 AM CET 6:09 PM CET
Nautical Twilight 7:26 AM CET 6:44 PM CET
Astronomical Twilight 6:52 AM CET 7:19 PM CET
Moon 11:40 PM CET (12/23) 11:45 AM CET (12/23)
Length of Visible Light 10h 06m
Length of Day
9h 01m
Waning Gibbous, 70% of the Moon is Illuminated
Dec 23
Waning Gibbous
Dec 25
Last Quarter
Jan 1
New
Jan 8
First Quarter
Jan 16
Full

Hourly Weather History & Observations

Time (CET) Temp. Windchill Dew Point Humidity Pressure Visibility Wind Dir Wind Speed Gust Speed Precip Events Conditions
12:00 AM 37.4 °F - 35.6 °F 93% 30.39 in - Variable 2.3 mph - N/A   Clear
5:30 AM 33.8 °F - 33.8 °F 100% 30.33 in 4.3 mi Calm Calm - N/A   Unknown
6:00 AM 33.8 °F - 33.8 °F 100% 30.33 in 4.3 mi Calm Calm - N/A   Unknown
6:30 AM 33.8 °F - 33.8 °F 100% 30.33 in - Calm Calm - N/A   Clear
7:00 AM 31 °F - 31 °F 97% 30.39 in 6 mi ESE 4.6 mph - -   Scattered Clouds
7:00 AM 32.0 °F 27.5 °F 32.0 °F 100% 30.30 in - ESE 4.6 mph - N/A   Clear
7:30 AM 33.8 °F 28.6 °F 33.8 °F 100% 30.27 in - SE 5.8 mph - N/A   Clear
8:00 AM 32.0 °F - 32.0 °F 100% 30.27 in - Variable 2.3 mph - N/A   Clear
8:30 AM 32.0 °F - 32.0 °F 100% 30.27 in - Variable 1.2 mph - N/A   Clear
9:00 AM 33.8 °F - 33.8 °F 100% 30.27 in - WNW 2.3 mph - N/A   Clear
9:30 AM 33.8 °F - 33.8 °F 100% 30.27 in - Variable 1.2 mph - N/A   Clear
10:00 AM 34 °F - 32 °F 88% 30.36 in 6 mi ESE 2.3 mph - -   Scattered Clouds
10:00 AM 33.8 °F - 33.8 °F 100% 30.27 in - Variable 1.2 mph - N/A   Clear
10:30 AM 37.4 °F - 35.6 °F 93% 30.27 in - Variable 1.2 mph - N/A   Clear
11:00 AM 39.2 °F - 37.4 °F 93% 30.30 in 6.2 mi Variable 2.3 mph - N/A   Partly Cloudy
11:30 AM 42.8 °F - 37.4 °F 81% 30.27 in 6.2 mi Calm Calm - N/A   Scattered Clouds
12:00 PM 42.8 °F - 37.4 °F 81% 30.27 in 6.2 mi Calm Calm - N/A   Scattered Clouds
12:30 PM 44.6 °F - 37.4 °F 76% 30.24 in 6.2 mi Calm Calm - N/A   Scattered Clouds
1:00 PM 46 °F - 37 °F 62% 30.24 in 12 mi Calm Calm - -   Mostly Cloudy
1:00 PM 46.4 °F - 37.4 °F 71% 30.21 in 6.2 mi South 1.2 mph - N/A   Scattered Clouds
1:30 PM 46.4 °F 44.3 °F 39.2 °F 76% 30.18 in 6.2 mi NNW 4.6 mph - N/A   Scattered Clouds
2:00 PM 48.2 °F - 39.2 °F 71% 30.18 in 6.2 mi North 2.3 mph - N/A   Partly Cloudy
2:30 PM 48.2 °F - 41.0 °F 76% 30.15 in 6.2 mi Calm Calm - N/A   Partly Cloudy
3:00 PM 48.2 °F - 41.0 °F 76% 30.15 in 6.2 mi Variable 1.2 mph - N/A   Partly Cloudy
3:30 PM 50.0 °F - 41.0 °F 71% 30.12 in 6.2 mi Calm Calm - N/A   Partly Cloudy
4:00 PM 49 °F - 40 °F 63% 30.15 in 16 mi Calm Calm - -   Scattered Clouds
4:00 PM 50.0 °F - 41.0 °F 71% 30.12 in 6.2 mi South 8.1 mph - N/A   Partly Cloudy
4:30 PM 48.2 °F - 41.0 °F 76% 30.12 in 6.2 mi SSW 4.6 mph - N/A   Partly Cloudy
5:00 PM 48.2 °F - 41.0 °F 76% 30.12 in 6.2 mi Calm Calm - N/A   Partly Cloudy
5:30 PM 48.2 °F - 41.0 °F 76% 30.12 in 6.2 mi Calm Calm - N/A   Partly Cloudy
6:00 PM 48.2 °F - 41.0 °F 76% 30.09 in 6.2 mi South 4.6 mph - N/A   Partly Cloudy
6:30 PM 48.2 °F - 41.0 °F 76% 30.09 in 6.2 mi SSE 6.9 mph 19.6 mph N/A   Partly Cloudy
7:00 PM 49 °F - 40 °F 63% 30.10 in 19 mi South 11.5 mph - -   Scattered Clouds
7:00 PM 51.8 °F - 41.0 °F 67% 30.06 in 6.2 mi South 5.8 mph - N/A   Partly Cloudy
7:30 PM 50.0 °F - 41.0 °F 71% 30.06 in 6.2 mi SE 6.9 mph - N/A   Partly Cloudy
8:00 PM 50.0 °F - 41.0 °F 71% 30.06 in 6.2 mi SE 10.4 mph - N/A   Scattered Clouds
8:30 PM 50.0 °F - 41.0 °F 71% 30.06 in 6.2 mi ESE 8.1 mph - N/A   Scattered Clouds
9:00 PM 50.0 °F - 39.2 °F 66% 30.04 in 6.2 mi SE 9.2 mph - N/A   Partly Cloudy
9:30 PM 50.0 °F - 39.2 °F 66% 30.04 in 6.2 mi SE 12.7 mph - N/A   Partly Cloudy
10:00 PM 50.0 °F - 39.2 °F 66% 30.04 in 6.2 mi SE 9.2 mph - N/A   Partly Cloudy
10:30 PM 51.8 °F - 41.0 °F 67% 30.04 in 6.2 mi SSE 13.8 mph - N/A   Partly Cloudy
11:00 PM 51.8 °F - 39.2 °F 62% 30.01 in 6.2 mi SE 5.8 mph - N/A   Scattered Clouds
11:30 PM 51.8 °F - 41.0 °F 67% 30.01 in 6.2 mi SE 11.5 mph - N/A   Scattered Clouds